Time,TemperatureF,DewpointF,PressureIn,WindDirection,WindDirectionDegrees,WindSpeedMPH,WindSpeedGustMPH,Humidity,HourlyPrecipIn,Conditions,Clouds,dailyrainin,SoftwareType,DateUTC
2013-05-14 00:00:00,44.3,37.9,29.41,WSW,251,12.0,25.0,78,0.00,RA,,0.00,WeatherDisplay:10.37,2013-05-13 23:00:00,
2013-05-14 00:15:00,44.3,37.9,29.41,WSW,246,12.0,28.0,78,0.00,CLR,,0.00,WeatherDisplay:10.37,2013-05-13 23:15:00,
2013-05-14 00:30:00,44.4,38.3,29.40,WSW,247,10.0,23.0,79,0.00,CLR,,0.00,WeatherDisplay:10.37,2013-05-13 23:30:00,
2013-05-14 00:45:00,44.5,38.7,29.40,WSW,247,12.0,23.0,80,0.00,CLR,,0.00,WeatherDisplay:10.37,2013-05-13 23:45:00,
2013-05-14 01:00:00,44.4,39.2,29.39,WSW,244,15.0,25.0,82,0.00,CLR,,0.00,WeatherDisplay:10.37,2013-05-14 00:00:00,
2013-05-14 01:15:00,44.5,38.7,29.38,WSW,249,14.0,26.0,80,0.00,CLR,,0.00,WeatherDisplay:10.37,2013-05-14 00:15:00,
2013-05-14 01:30:00,44.6,38.8,29.37,West,261,15.0,26.0,80,0.00,CLR,,0.00,WeatherDisplay:10.37,2013-05-14 00:30:00,
2013-05-14 01:45:00,44.2,38.7,29.37,WSW,242,14.0,27.0,81,0.00,CLR,,0.00,WeatherDisplay:10.37,2013-05-14 00:45:00,
2013-05-14 02:00:00,43.9,38.4,29.36,WSW,245,13.0,26.0,81,0.00,CLR,,0.00,WeatherDisplay:10.37,2013-05-14 01:00:00,
2013-05-14 02:15:00,44.0,38.9,29.37,WSW,247,14.0,27.0,82,0.00,CLR,,0.00,WeatherDisplay:10.37,2013-05-14 01:15:00,
2013-05-14 02:30:00,44.2,38.7,29.37,WSW,247,14.0,25.0,81,0.00,CLR,,0.00,WeatherDisplay:10.37,2013-05-14 01:30:00,
2013-05-14 02:45:00,44.3,39.2,29.36,WSW,247,13.0,29.0,82,0.00,CLR,,0.00,WeatherDisplay:10.37,2013-05-14 01:45:00,
2013-05-14 03:00:00,44.1,39.3,29.36,WSW,253,12.0,29.0,83,0.00,CLR,,0.00,WeatherDisplay:10.37,2013-05-14 02:00:00,
2013-05-14 03:15:00,44.0,39.2,29.36,WSW,249,15.0,26.0,83,0.00,CLR,,0.00,WeatherDisplay:10.37,2013-05-14 02:15:00,
2013-05-14 03:30:00,43.8,39.6,29.36,WSW,257,13.0,28.0,85,0.00,CLR,,0.00,WeatherDisplay:10.37,2013-05-14 02:30:00,
2013-05-14 03:45:00,43.6,39.7,29.36,WSW,250,10.0,30.0,86,0.00,CLR,,0.00,WeatherDisplay:10.37,2013-05-14 02:45:00,
2013-05-14 04:00:00,43.3,39.7,29.36,WSW,252,14.0,23.0,87,0.00,CLR,,0.00,WeatherDisplay:10.37,2013-05-14 03:00:00,
2013-05-14 04:15:00,43.0,39.7,29.36,West,261,14.0,26.0,88,0.00,CLR,,0.00,WeatherDisplay:10.37,2013-05-14 03:15:00,
2013-05-14 04:30:00,42.6,39.9,29.35,WSW,248,12.0,21.0,90,0.00,CLR,,0.00,WeatherDisplay:10.37,2013-05-14 03:30:00,
2013-05-14 04:45:00,42.2,39.5,29.35,WSW,258,14.0,29.0,90,0.00,CLR,,0.00,WeatherDisplay:10.37,2013-05-14 03:45:00,
2013-05-14 05:00:00,42.2,39.7,29.35,WSW,257,13.0,27.0,91,0.00,CLR,,0.00,WeatherDisplay:10.37,2013-05-14 04:00:00,
2013-05-14 05:15:00,42.2,39.8,29.35,WSW,248,9.0,26.0,91,0.00,CLR,,0.00,WeatherDisplay:10.37,2013-05-14 04:15:00,
2013-05-14 05:30:00,42.0,39.3,29.35,West,262,14.0,23.0,90,0.00,CLR,,0.00,WeatherDisplay:10.37,2013-05-14 04:30:00,
2013-05-14 05:45:00,42.1,39.4,29.35,West,263,14.0,26.0,90,0.00,CLR,,0.00,WeatherDisplay:10.37,2013-05-14 04:45:00,
2013-05-14 06:00:00,42.2,39.5,29.35,West,263,13.0,24.0,90,0.00,CLR,,0.00,WeatherDisplay:10.37,2013-05-14 05:00:00,
2013-05-14 06:15:00,42.4,39.4,29.35,West,259,12.0,23.0,89,0.00,CLR,,0.00,WeatherDisplay:10.37,2013-05-14 05:15:00,
2013-05-14 06:30:00,42.6,39.0,29.36,WSW,247,9.0,20.0,87,0.00,CLR,,0.00,WeatherDisplay:10.37,2013-05-14 05:30:00,
2013-05-14 06:45:00,42.8,38.9,29.36,WSW,251,7.0,20.0,86,0.00,CLR,,0.00,WeatherDisplay:10.37,2013-05-14 05:45:00,
2013-05-14 07:00:00,43.2,39.3,29.36,WSW,246,10.0,17.0,86,0.00,CLR,,0.00,WeatherDisplay:10.37,2013-05-14 06:00:00,
2013-05-14 07:15:00,43.3,39.1,29.36,SW,235,9.0,22.0,85,0.00,CLR,,0.00,WeatherDisplay:10.37,2013-05-14 06:15:00,
2013-05-14 07:30:00,43.2,39.6,29.36,WSW,245,7.0,20.0,87,0.00,CLR,,0.00,WeatherDisplay:10.37,2013-05-14 06:30:00,
2013-05-14 07:45:00,43.5,39.6,29.37,WSW,246,8.0,17.0,86,0.00,CLR,,0.00,WeatherDisplay:10.37,2013-05-14 06:45:00,
2013-05-14 08:00:00,43.7,39.2,29.36,WSW,243,10.0,17.0,84,0.00,CLR,,0.00,WeatherDisplay:10.37,2013-05-14 07:00:00,
2013-05-14 08:15:00,43.8,39.0,29.37,WSW,251,12.0,20.0,83,0.00,CLR,,0.00,WeatherDisplay:10.37,2013-05-14 07:15:00,
2013-05-14 08:30:00,44.1,39.3,29.37,WSW,253,8.0,26.0,83,0.00,CLR,,0.00,WeatherDisplay:10.37,2013-05-14 07:30:00,
2013-05-14 08:45:00,44.3,39.8,29.37,WSW,255,9.0,20.0,84,0.00,CLR,,0.00,WeatherDisplay:10.37,2013-05-14 07:45:00,
2013-05-14 09:00:00,44.9,40.0,29.37,WSW,239,9.0,24.0,83,0.00,CLR,,0.00,WeatherDisplay:10.37,2013-05-14 08:00:00,
2013-05-14 09:15:00,44.9,39.8,29.36,WSW,246,14.0,22.0,82,0.00,CLR,,0.00,WeatherDisplay:10.37,2013-05-14 08:15:00,
2013-05-14 09:30:00,45.5,40.0,29.37,WSW,253,8.0,23.0,81,0.00,CLR,,0.00,WeatherDisplay:10.37,2013-05-14 08:30:00,
2013-05-14 09:45:00,45.9,40.1,29.37,WSW,252,12.0,22.0,80,0.00,CLR,,0.00,WeatherDisplay:10.37,2013-05-14 08:45:00,
2013-05-14 10:00:00,45.5,39.3,29.37,SW,234,10.0,21.0,79,0.00,CLR,,0.00,WeatherDisplay:10.37,2013-05-14 09:00:00,
2013-05-14 10:15:00,45.6,39.8,29.37,WSW,256,12.0,20.0,80,0.00,CLR,,0.00,WeatherDisplay:10.37,2013-05-14 09:15:00,
2013-05-14 10:30:00,46.2,40.7,29.37,WSW,247,10.0,20.0,81,0.00,CLR,,0.00,WeatherDisplay:10.37,2013-05-14 09:30:00,
2013-05-14 10:45:00,47.4,40.9,29.37,WSW,244,14.0,23.0,78,0.00,CLR,,0.00,WeatherDisplay:10.37,2013-05-14 09:45:00,
2013-05-14 11:00:00,47.6,40.7,29.36,WSW,240,13.0,24.0,77,0.00,CLR,,0.00,WeatherDisplay:10.37,2013-05-14 10:00:00,
2013-05-14 11:15:00,47.5,40.3,29.36,WSW,255,16.0,24.0,76,0.00,CLR,,0.00,WeatherDisplay:10.37,2013-05-14 10:15:00,
2013-05-14 11:30:00,47.6,40.4,29.37,WSW,241,10.0,25.0,76,0.00,CLR,,0.00,WeatherDisplay:10.37,2013-05-14 10:30:00,
2013-05-14 11:45:00,48.4,40.8,29.36,WSW,256,13.0,21.0,75,0.00,CLR,,0.00,WeatherDisplay:10.37,2013-05-14 10:45:00,
2013-05-14 12:00:00,49.0,40.4,29.36,WSW,252,12.0,24.0,72,0.00,CLR,,0.00,WeatherDisplay:10.37,2013-05-14 11:00:00,
2013-05-14 12:15:00,49.7,39.9,29.36,WSW,248,12.0,21.0,69,0.00,CLR,,0.00,WeatherDisplay:10.37,2013-05-14 11:15:00,
2013-05-14 12:30:00,49.8,39.6,29.36,WSW,255,14.0,24.0,68,0.00,CLR,,0.00,WeatherDisplay:10.37,2013-05-14 11:30:00,
2013-05-14 12:45:00,50.3,39.7,29.36,WSW,248,12.0,24.0,67,0.00,CLR,,0.00,WeatherDisplay:10.37,2013-05-14 11:45:00,
2013-05-14 13:00:00,50.4,39.9,29.36,WSW,252,13.0,21.0,67,0.00,CLR,,0.00,WeatherDisplay:10.37,2013-05-14 12:00:00,
2013-05-14 13:15:00,50.4,40.6,29.36,WSW,257,13.0,24.0,69,0.00,CLR,,0.00,WeatherDisplay:10.37,2013-05-14 12:15:00,
2013-05-14 13:30:00,50.4,39.1,29.36,WSW,247,12.0,20.0,65,0.00,CLR,,0.00,WeatherDisplay:10.37,2013-05-14 12:30:00,
2013-05-14 13:45:00,50.9,39.5,29.36,WSW,255,10.0,23.0,65,0.00,CLR,,0.00,WeatherDisplay:10.37,2013-05-14 12:45:00,
2013-05-14 14:00:00,51.6,39.8,29.36,WSW,244,10.0,25.0,64,0.00,CLR,,0.00,WeatherDisplay:10.37,2013-05-14 13:00:00,
2013-05-14 14:15:00,49.5,41.6,29.37,West,274,8.0,20.0,74,0.00,CLR,,0.00,WeatherDisplay:10.37,2013-05-14 13:15:00,
2013-05-14 14:30:00,49.9,41.6,29.37,WSW,255,9.0,21.0,73,0.00,CLR,,0.00,WeatherDisplay:10.37,2013-05-14 13:30:00,
2013-05-14 14:45:00,50.5,41.1,29.37,WSW,253,13.0,23.0,70,0.00,CLR,,0.00,WeatherDisplay:10.37,2013-05-14 13:45:00,
2013-05-14 15:00:00,50.5,41.1,29.37,WSW,252,8.0,20.0,70,0.00,CLR,,0.00,WeatherDisplay:10.37,2013-05-14 14:00:00,
2013-05-14 15:15:00,49.0,40.8,29.37,WSW,248,7.0,20.0,73,0.00,CLR,,0.00,WeatherDisplay:10.37,2013-05-14 14:15:00,
2013-05-14 15:30:00,46.7,41.8,29.38,WSW,246,6.0,24.0,83,0.04,RA,,0.04,WeatherDisplay:10.37,2013-05-14 14:30:00,
2013-05-14 15:45:00,48.8,43.3,29.37,WSW,239,5.0,14.0,81,0.00,CLR,,0.04,WeatherDisplay:10.37,2013-05-14 14:45:00,
2013-05-14 16:00:00,50.2,43.6,29.37,SW,230,6.0,12.0,78,0.00,CLR,,0.04,WeatherDisplay:10.37,2013-05-14 15:00:00,
2013-05-14 16:15:00,50.3,42.7,29.37,SW,234,7.0,14.0,75,0.00,CLR,,0.04,WeatherDisplay:10.37,2013-05-14 15:15:00,
2013-05-14 16:30:00,48.8,39.8,29.37,West,276,17.0,27.0,71,0.00,CLR,,0.04,WeatherDisplay:10.37,2013-05-14 15:30:00,
2013-05-14 16:45:00,48.9,38.4,29.38,West,280,13.0,21.0,67,0.00,CLR,,0.04,WeatherDisplay:10.37,2013-05-14 15:45:00,
2013-05-14 17:00:00,48.6,38.9,29.38,West,271,9.0,18.0,69,0.00,CLR,,0.04,WeatherDisplay:10.37,2013-05-14 16:00:00,
2013-05-14 17:15:00,51.0,41.6,29.38,West,265,13.0,20.0,70,0.00,CLR,,0.04,WeatherDisplay:10.37,2013-05-14 16:15:00,
2013-05-14 17:30:00,50.4,41.0,29.38,West,261,8.0,22.0,70,0.00,CLR,,0.04,WeatherDisplay:10.37,2013-05-14 16:30:00,
2013-05-14 17:45:00,51.3,40.4,29.38,WSW,248,7.0,14.0,66,0.00,CLR,,0.04,WeatherDisplay:10.37,2013-05-14 16:45:00,
2013-05-14 18:00:00,51.6,40.2,29.38,WSW,247,9.0,17.0,65,0.00,CLR,,0.04,WeatherDisplay:10.37,2013-05-14 17:00:00,
2013-05-14 18:15:00,50.1,40.7,29.38,WSW,245,5.0,15.0,70,0.00,CLR,,0.04,WeatherDisplay:10.37,2013-05-14 17:15:00,
2013-05-14 18:30:00,51.3,41.1,29.38,WSW,256,7.0,12.0,68,0.00,CLR,,0.04,WeatherDisplay:10.37,2013-05-14 17:30:00,
2013-05-14 18:45:00,51.3,41.1,29.38,West,260,10.0,18.0,68,0.00,CLR,,0.04,WeatherDisplay:10.37,2013-05-14 17:45:00,
2013-05-14 19:00:00,51.0,40.5,29.38,WSW,258,6.0,13.0,67,0.00,CLR,,0.04,WeatherDisplay:10.37,2013-05-14 18:00:00,
2013-05-14 19:15:00,50.8,41.8,29.39,SW,231,5.0,12.0,71,0.00,CLR,,0.04,WeatherDisplay:10.37,2013-05-14 18:15:00,
2013-05-14 19:30:00,49.2,40.9,29.39,SW,236,6.0,12.0,73,0.00,CLR,,0.04,WeatherDisplay:10.37,2013-05-14 18:30:00,
2013-05-14 19:45:00,49.1,39.7,29.39,SW,224,7.0,10.0,70,0.00,CLR,,0.04,WeatherDisplay:10.37,2013-05-14 18:45:00,
2013-05-14 20:00:00,49.0,39.6,29.39,SW,232,3.0,12.0,70,0.00,CLR,,0.04,WeatherDisplay:10.37,2013-05-14 19:00:00,
2013-05-14 20:15:00,48.4,40.8,29.41,WNW,282,12.0,20.0,75,0.01,RA,,0.05,WeatherDisplay:10.37,2013-05-14 19:15:00,
2013-05-14 20:30:00,46.5,41.3,29.40,SW,233,5.0,17.0,82,0.02,RA,,0.06,WeatherDisplay:10.37,2013-05-14 19:30:00,
2013-05-14 20:45:00,46.9,40.4,29.40,West,261,2.0,9.0,78,0.00,CLR,,0.06,WeatherDisplay:10.37,2013-05-14 19:45:00,
2013-05-14 21:00:00,47.1,40.6,29.40,SW,236,2.0,4.0,78,0.00,CLR,,0.06,WeatherDisplay:10.37,2013-05-14 20:00:00,
2013-05-14 21:15:00,47.2,41.0,29.40,West,269,2.0,8.0,79,0.00,CLR,,0.06,WeatherDisplay:10.37,2013-05-14 20:15:00,
2013-05-14 21:30:00,47.2,40.7,29.40,West,276,5.0,8.0,78,0.00,CLR,,0.06,WeatherDisplay:10.37,2013-05-14 20:30:00,
2013-05-14 21:45:00,46.7,41.2,29.41,WSW,258,3.0,8.0,81,0.00,CLR,,0.06,WeatherDisplay:10.37,2013-05-14 20:45:00,
2013-05-14 22:00:00,46.3,41.1,29.41,West,270,3.0,7.0,82,0.00,CLR,,0.06,WeatherDisplay:10.37,2013-05-14 21:00:00,
2013-05-14 22:15:00,46.1,40.6,29.41,West,271,3.0,6.0,81,0.00,CLR,,0.06,WeatherDisplay:10.37,2013-05-14 21:15:00,
2013-05-14 22:30:00,46.0,40.5,29.41,West,271,3.0,7.0,81,0.00,CLR,,0.06,WeatherDisplay:10.37,2013-05-14 21:30:00,
2013-05-14 22:45:00,45.3,40.5,29.41,West,261,2.0,6.0,83,0.00,CLR,,0.06,WeatherDisplay:10.37,2013-05-14 21:45:00,
2013-05-14 23:00:00,44.9,40.4,29.41,WNW,290,2.0,5.0,84,0.00,CLR,,0.06,WeatherDisplay:10.37,2013-05-14 22:00:00,
2013-05-14 23:15:00,44.7,40.5,29.41,West,262,2.0,3.0,85,0.00,CLR,,0.06,WeatherDisplay:10.37,2013-05-14 22:15:00,
2013-05-14 23:30:00,44.1,40.2,29.41,West,269,1.0,4.0,86,0.00,CLR,,0.06,WeatherDisplay:10.37,2013-05-14 22:30:00,
2013-05-14 23:45:00,43.7,39.8,29.41,West,276,2.0,3.0,86,0.00,CLR,,0.06,WeatherDisplay:10.37,2013-05-14 22:45:00,